FREGAT R/B, 44116

Orbit data source: Space-Track

FREGAT R/B, 44116 is space debris originally from a launch on Thu, 04 Apr 2019 UTC launched from the French Guiana (FRGUI). Debris objects in space refer to the collection of defunct objects orbiting the Earth. Examples of debris include non-operational satellites, rocket bodies, and fragments generated from explosions, collisions, or faulty payload assembly.

Loading next visibility...
Identifier
44116, 2019-020E
Orbit
Active
Country
Flag of CISCIS
Related business
Manufacturer
Lavochkin
Mission
Spacecraft
Bus & Motor
FREGAT, Unknown motor
Mass
1,050 kg wet, 1,050 kg dry
Launch date (UTC)
2019-04-04 (7 years ago)
Launch vehicle
Unknown
Launch site
French Guiana (FRGUI)
Object type
Payload
Rocket body
Debris
Shape & HBR
Irr, 1.6 m
Radar Cross Section
11.055 m², Large (>1 m²)

Expand to show TLE details & history
Last TLE update: 15 hours ago

TLE from 15 hours ago
0 FREGAT R/B
1 44116U 19020E   25292.96220931 -.00000022  00000-0  00000-0 0  9995
2 44116   0.0853 313.3687 0007350   1.7710  44.8060  5.21008440123974
Epoch: 2025-10-19T23:05Z
TLE epoch observation values (Epoch: 2025-10-19T23:05:34.884Z)
Latitude
0.06549°
Longitude
-15.0667°
Altitude
7,668.221 km
Speed
5.329 km/s
True Right ascension
00h 00m 00s
True Declination
0° 03' 55"
Sunlit
Object was in partial shadow at epoch
Visualization orbit readout
Latitude
Unknown
Longitude
Unknown
Altitude
Unknown
Speed
Unknown
Apparent Right ascension
Unknown
Apparent Declination
Unknown
Sunlit
N/A
Visualization observer readout
Local Sidereal Time
08:34:06
Azimuth
Unknown
Elevation
Unknown
Doppler factor
Unknown
Orbital elements
Apogee altitude
7,690.592 km
Perigee altitude
7,669.926 km
Semi-major axis
14,058.396 km
Eccentricity
0.00074
Inclination
0.0853°
RAAN
313.3687°
Arg. of periapsis
1.771°
True anomaly
44.86539°
Mean anomaly
44.806°
Eccentric anomaly
44.83569°
Mean motion
1.30209 °/min
Orbital period
276.48 mins
BSTAR
0
Loading maneuver chart data...
Computing Atmospheric mass density...
Loading historical data...
Loading historical data...
Loading historical data...
Loading historical data...
Loading historical data...
Loading historical data...
Loading historical data...
Other satellites on launch #20 in the year 2019 (2019-04-04 UTC)

Documentation

Showing up to 5 results
|